Location: Fauquembergues
(50.6005°N, 2.0987°E)
Time: 03:29:22
(UTC+00:00)

Cosmos 1697 Rocket - Pass Details

Date: 14 July 2020
Orbit: 834 x 842 km, 71.0° (Epoch: 06 August)

Event Time Altitude Azimuth Distance (km) Brightness Sun altitude
Rises 00:22:57 0° 332° (NNW) 3,401 6.8 -17.5°
Reaches altitude 10° 00:25:40 10° 342° (NNW) 2,462 6.1 -17.5°
Maximum altitude 00:30:43 32° 46° (NE) 1,394 4.3 -17.4°
Drops below altitude 10° 00:35:44 10° 109° (ESE) 2,446 5.0 -17.3°
Sets 00:38:25 0° 119° (ESE) 3,376 5.6 -17.2°
